Le nostre stazioni meteo in Italia

Pubblicità
Il mio iltempo24.it
Besancon, Francia (7288): Temperatura & dewpoint: 16.06.2017 22:00:00 - 22.06.2017 22:00:00 (CEST)Besancon, Francia (7288): Temperatura 5cm: 16.06.2017 22:00:00 - 22.06.2017 22:00:00 (CEST)Besancon, Francia (7288): Temperatura -20cm & Temperatura -100cm: 16.06.2017 22:00:00 - 22.06.2017 22:00:00 (CEST)Besancon, Francia (7288): velocità del vento & gusts: 16.06.2017 22:00:00 - 22.06.2017 22:00:00 (CEST)Besancon, Francia (7288): direzione del vento: 16.06.2017 22:00:00 - 22.06.2017 22:00:00 (CEST)Besancon, Francia (7288): reduced air pressure: 16.06.2017 22:00:00 - 22.06.2017 22:00:00 (CEST)Besancon, Francia (7288): visibility: 16.06.2017 22:00:00 - 22.06.2017 22:00:00 (CEST)Besancon, Francia (7288): ore di luce: 16.06.2017 22:00:00 - 22.06.2017 22:00:00 (CEST)Besancon, Francia (7288): precipitazioni: 16.06.2017 22:00:00 - 22.06.2017 22:00:00 (CEST)
Data & Tempo tt [°C] td [°C] tt 5cm [°C] tt -20cm [°C] tt -100cm [°C] ff [km/h] ff [kn] fx [km/h] fx [kn] dd ppp [hPa] vv [km] sd [min] rr [mm]
22.06.2017 22:00:00 29,0 18,1 26,7 25,7 18,8 7 4 17 9 SSO 1013,9 - 0 0,0
22.06.2017 21:00:00 30,7 18,1 29,3 25,7 18,8 11 6 23 12 SSO 1012,9 - 0 0,0
22.06.2017 20:00:00 31,8 18,4 31,2 25,6 18,8 8 4 29 16 SO 1012,7 - 35 0,0
22.06.2017 19:00:00 33,1 18,5 35,3 25,4 18,8 10 5 30 16 SO 1012,4 - 60 0,0
22.06.2017 18:00:00 33,3 17,9 36,9 25,2 18,7 14 8 32 18 SSO 1012,4 - 60 0,0
22.06.2017 17:00:00 33,5 17,6 38,3 25,0 18,7 14 7 30 16 SO 1012,7 30 60 0,0
22.06.2017 16:00:00 33,3 17,1 37,3 24,7 18,7 11 6 31 17 SO 1013,1 - 60 0,0
22.06.2017 15:00:00 33,0 17,6 38,9 24,5 18,7 12 7 31 17 SO 1013,5 30 60 0,0
22.06.2017 14:00:00 32,7 16,5 39,9 24,3 18,7 12 6 27 15 OSO 1014,1 30 60 0,0
22.06.2017 13:00:00 31,5 17,4 39,5 - - - - - - - 1014,5 30 60 0,0
22.06.2017 12:00:00 30,3 17,4 38,2 24,0 18,7 8 4 18 10 OSO 1015,0 30 60 0,0
22.06.2017 11:00:00 29,1 17,6 35,1 23,9 18,6 8 4 18 10 OSO 1015,3 - 60 0,0
22.06.2017 10:00:00 27,6 15,9 33,3 24,0 18,7 7 4 15 8 SO 1015,6 25 60 0,0
22.06.2017 09:00:00 26,6 15,3 21,9 24,1 18,6 0 0 4 2 N 1015,3 20 60 0,0
22.06.2017 08:00:00 21,8 14,9 18,5 24,3 18,6 0 0 3 2 N 1015,9 - 60 0,0
22.06.2017 07:00:00 19,6 15,0 15,9 24,4 18,7 0 0 5 3 N 1015,9 15 24 0,0
22.06.2017 06:00:00 19,1 14,8 15,3 24,6 18,6 3 2 7 4 NNE 1015,8 10 0 0,0
22.06.2017 05:00:00 19,2 15,1 15,4 24,7 18,6 2 1 5 3 NNE 1015,6 - 0 0,0
22.06.2017 04:00:00 19,7 15,1 15,9 24,8 18,6 4 2 5 3 NNE 1015,6 - 0 0,0
22.06.2017 03:00:00 20,2 15,6 16,1 25,0 18,6 2 1 5 3 NNE 1015,6 - 0 0,0
22.06.2017 02:00:00 20,7 15,9 16,3 25,1 18,6 3 2 7 4 NNE 1015,7 - 0 0,0
22.06.2017 01:00:00 21,5 16,0 17,2 25,2 18,6 2 1 5 3 NNE 1015,8 - 0 0,0
22.06.2017 00:00:00 22,1 16,1 17,6 25,3 18,6 4 2 6 3 NNE 1015,8 - 0 0,0
21.06.2017 23:00:00 23,8 16,3 18,6 25,3 18,6 0 0 4 2 N 1015,6 - 0 0,0
21.06.2017 22:00:00 25,4 16,3 19,8 25,3 18,6 3 1 6 3 NNE 1014,7 - 0 0,0
21.06.2017 21:00:00 27,9 14,9 23,6 25,2 18,6 0 0 5 3 N 1013,9 - 0 0,0
21.06.2017 20:00:00 30,5 14,6 28,6 25,1 18,5 3 2 13 7 NNE 1013,2 - 40 0,0
21.06.2017 19:00:00 32,4 16,7 37,2 25,0 18,5 4 2 15 8 N 1012,6 - 60 0,0
21.06.2017 18:00:00 32,7 15,2 38,4 24,8 18,6 5 3 14 8 NNO 1012,7 - 60 0,0
21.06.2017 17:00:00 32,6 14,2 37,6 24,6 18,6 8 4 20 11 NO 1012,9 25 60 0,0
21.06.2017 16:00:00 32,6 14,2 40,6 24,3 18,5 6 4 19 11 NO 1013,3 25 60 0,0
21.06.2017 15:00:00 32,2 14,3 41,1 24,0 18,5 5 3 21 11 ONO 1013,7 - 60 0,0
21.06.2017 14:00:00 31,2 16,4 41,6 23,8 18,5 5 3 15 8 NO 1014,3 20 60 0,0
21.06.2017 13:00:00 30,5 17,6 40,3 23,6 18,5 5 3 14 7 ONO 1014,8 20 60 0,0
21.06.2017 12:00:00 29,2 18,0 37,9 23,5 18,5 5 3 12 7 ONO 1015,0 20 60 0,0
21.06.2017 11:00:00 28,0 17,8 34,4 23,5 18,5 6 4 14 8 OSO 1015,3 20 60 0,0
21.06.2017 10:00:00 26,7 16,3 25,7 23,5 18,5 6 3 13 7 SO 1015,4 15 60 0,0
21.06.2017 09:00:00 24,5 19,3 21,4 23,6 18,4 0 0 4 2 N 1015,5 15 60 0,0
21.06.2017 08:00:00 21,1 20,3 19,2 23,7 18,4 0 0 3 2 N 1015,7 15 48 0,0
21.06.2017 07:00:00 19,3 18,5 16,8 23,8 18,4 0 0 4 2 N 1015,9 12 21 0,0
21.06.2017 06:00:00 19,2 18,4 16,7 24,0 18,4 0 0 5 3 N 1015,8 12 0 0,2
21.06.2017 05:00:00 19,4 18,4 17,3 24,1 18,4 3 2 8 4 NNE 1015,4 - 0 0,0
21.06.2017 04:00:00 19,5 18,5 17,2 24,2 18,4 2 1 5 3 N 1015,2 - 0 0,0
21.06.2017 03:00:00 20,1 18,9 18,4 24,3 18,4 0 0 6 3 N 1015,3 - 0 0,0
21.06.2017 02:00:00 20,4 18,5 19,6 24,4 18,4 4 2 32 17 NNE 1015,8 - 0 8,6
21.06.2017 01:00:00 21,3 18,5 19,9 24,5 18,4 3 2 28 15 NE 1016,5 - 0 0,8
21.06.2017 00:00:00 24,2 17,2 19,6 24,6 18,4 3 2 14 7 NNE 1015,7 - 0 0,0
20.06.2017 23:00:00 24,1 17,1 19,3 24,6 18,4 2 1 4 2 N 1015,4 - 0 0,0
20.06.2017 22:00:00 25,7 17,4 21,8 24,6 18,4 0 0 5 3 N 1015,1 - 0 0,0
20.06.2017 21:00:00 27,5 15,8 25,0 24,5 18,4 0 0 5 3 N 1014,5 - 0 0,0
20.06.2017 20:00:00 28,8 16,0 26,6 24,4 18,4 0 0 8 4 N 1014,4 - 0 0,0
20.06.2017 19:00:00 31,5 15,0 31,7 24,2 18,4 5 3 11 6 OSO 1014,0 - 35 0,0
20.06.2017 18:00:00 31,0 14,2 32,5 24,0 18,4 6 4 14 8 OSO 1014,4 - 37 0,0
20.06.2017 17:00:00 32,4 14,5 39,8 23,8 18,4 6 4 18 10 SO 1014,4 25 60 0,0
20.06.2017 16:00:00 32,2 15,2 40,4 23,5 18,4 5 3 17 9 S 1014,7 25 60 0,0
20.06.2017 15:00:00 31,2 15,6 39,7 23,3 18,4 8 4 20 11 SO 1015,5 25 60 0,0
20.06.2017 14:00:00 30,3 15,2 38,5 23,1 18,3 9 5 26 14 OSO 1015,9 25 60 0,0
20.06.2017 13:00:00 29,5 14,5 36,8 22,9 18,3 10 6 26 14 SO 1016,3 25 60 0,0
20.06.2017 12:00:00 28,9 13,9 34,3 22,9 18,3 10 5 29 15 OSO 1016,9 25 60 0,0
20.06.2017 11:00:00 27,1 12,7 29,0 22,9 18,3 13 7 32 17 SSO 1016,9 20 50 0,0
20.06.2017 10:00:00 26,3 12,4 28,4 22,9 18,3 11 6 27 15 SO 1017,0 20 58 0,0
20.06.2017 09:00:00 24,6 13,5 22,4 23,0 18,3 7 4 22 12 SO 1017,1 - 46 0,0
20.06.2017 08:00:00 21,9 13,8 17,3 23,1 18,3 0 0 3 2 N 1017,2 20 60 0,0
20.06.2017 07:00:00 18,6 13,5 14,0 23,3 18,3 0 0 4 2 N 1017,5 20 24 0,0
20.06.2017 06:00:00 18,0 12,9 13,7 23,4 18,3 0 0 5 3 N 1017,3 20 0 0,0
20.06.2017 05:00:00 17,9 13,6 13,7 23,5 18,3 0 0 4 2 N 1017,5 - 0 0,0
20.06.2017 04:00:00 18,4 14,1 13,9 23,6 18,3 2 1 4 2 NNE 1017,6 - 0 0,0
20.06.2017 03:00:00 18,9 14,8 14,1 23,8 18,3 0 0 3 2 N 1017,7 - 0 0,0
20.06.2017 02:00:00 19,2 15,3 14,5 23,9 18,3 0 0 4 2 N 1017,7 - 0 0,0
20.06.2017 01:00:00 20,5 15,5 15,5 23,9 18,2 0 0 5 3 N 1017,6 - 0 0,0
20.06.2017 00:00:00 21,1 15,6 15,9 24,0 18,3 0 0 4 2 N 1017,3 - 0 0,0
19.06.2017 23:00:00 22,9 16,2 17,0 24,1 18,3 2 1 4 2 N 1016,7 - 0 0,0
19.06.2017 22:00:00 25,6 15,0 19,3 24,0 18,2 0 0 2 1 N 1016,4 - 0 0,0
19.06.2017 21:00:00 29,3 15,1 27,1 23,9 18,3 3 1 11 6 OSO 1015,7 - 37 0,0
19.06.2017 20:00:00 31,0 14,2 32,9 23,8 18,2 4 2 15 8 SO 1015,4 - 53 0,0
19.06.2017 19:00:00 31,5 15,0 35,2 23,6 18,2 5 3 17 9 SO 1015,3 - 60 0,0
19.06.2017 18:00:00 31,5 15,9 36,8 23,3 18,3 8 5 21 11 OSO 1015,6 - 60 0,0
19.06.2017 17:00:00 31,6 15,5 38,3 23,1 18,2 9 5 21 11 OSO 1015,8 30 60 0,0
19.06.2017 16:00:00 31,3 15,7 38,9 22,8 18,3 8 4 23 12 SO 1016,3 30 60 0,0
19.06.2017 15:00:00 30,9 15,3 38,7 22,5 18,3 9 5 26 14 SO 1016,6 30 60 0,0
19.06.2017 14:00:00 30,3 14,8 38,1 22,3 18,2 8 5 26 14 SO 1017,2 30 60 0,0
19.06.2017 13:00:00 29,1 14,5 36,5 22,1 18,2 11 6 28 15 SSO 1017,9 30 60 0,0
19.06.2017 12:00:00 28,1 15,4 35,1 22,0 18,2 12 6 27 15 OSO 1018,3 - 60 0,0
19.06.2017 11:00:00 27,0 14,7 33,1 21,9 18,2 8 4 23 13 SO 1018,6 30 60 0,0
19.06.2017 10:00:00 25,3 14,1 31,0 22,0 18,2 9 5 19 11 SO 1019,0 25 60 0,0
19.06.2017 09:00:00 23,8 13,1 18,4 22,1 18,2 0 0 7 4 N 1019,2 - 60 0,0
19.06.2017 08:00:00 18,7 11,5 14,8 22,2 18,2 2 1 6 3 E 1019,9 - 60 0,0
19.06.2017 07:00:00 16,0 10,7 12,2 22,4 18,2 3 2 5 3 N 1020,0 20 26 0,0
19.06.2017 06:00:00 15,6 9,9 11,3 22,5 18,2 2 1 4 2 NNE 1019,8 20 0 0,0
19.06.2017 05:00:00 16,4 10,0 11,6 22,6 18,2 0 0 4 2 N 1019,5 - 0 0,0
19.06.2017 04:00:00 17,0 10,1 12,3 22,7 18,2 0 0 4 2 N 1019,1 - 0 0,0
19.06.2017 03:00:00 17,4 10,3 12,5 22,8 18,2 0 0 6 3 N 1019,1 - 0 0,0
19.06.2017 02:00:00 18,0 10,6 13,1 22,9 18,2 0 0 9 5 N 1019,0 - 0 0,0
19.06.2017 01:00:00 19,7 10,4 15,9 23,0 18,2 4 2 11 6 N 1019,0 - 0 0,0
19.06.2017 00:00:00 20,0 10,7 16,6 23,0 18,1 3 2 12 6 NNE 1019,1 - 0 0,0
18.06.2017 23:00:00 21,0 11,3 17,1 23,1 18,2 3 1 11 6 NNE 1019,1 - 0 0,0
18.06.2017 22:00:00 22,1 11,8 18,8 23,1 18,1 3 1 17 9 N 1018,7 - 2 0,0
18.06.2017 21:00:00 24,9 12,8 23,3 23,1 18,2 8 4 26 14 NNE 1017,9 - 58 0,0
18.06.2017 20:00:00 27,0 13,4 28,8 23,0 18,2 6 3 31 17 N 1017,4 - 57 0,0
18.06.2017 19:00:00 27,4 13,0 31,0 22,8 18,2 12 6 32 18 NNE 1017,3 - 60 0,0
18.06.2017 18:00:00 27,7 13,2 32,4 22,6 18,1 11 6 36 19 NNE 1017,1 - 60 0,0
18.06.2017 17:00:00 27,7 13,2 34,1 22,4 18,1 9 5 40 22 NNE 1017,6 25 60 0,0
18.06.2017 16:00:00 27,1 13,1 34,9 22,2 18,1 13 7 35 19 NNE 1017,8 - 60 0,0
18.06.2017 15:00:00 26,4 12,8 35,0 22,0 18,2 13 7 33 18 NNE 1018,3 25 60 0,0
18.06.2017 14:00:00 26,0 13,8 33,3 21,7 18,1 11 6 37 20 NNE 1018,7 25 60 0,0
18.06.2017 13:00:00 24,8 12,4 32,6 21,6 18,1 9 5 35 19 NNE 1019,3 - 60 0,0
18.06.2017 12:00:00 23,9 11,9 31,1 21,6 18,1 9 5 31 17 NNE 1019,7 20 60 0,0
18.06.2017 11:00:00 22,9 12,2 28,3 21,6 18,1 8 4 30 16 NE 1020,0 20 60 0,0
18.06.2017 10:00:00 21,2 11,5 25,1 21,7 18,1 8 4 33 18 NNE 1020,8 - 60 0,0
18.06.2017 09:00:00 19,7 11,2 17,0 21,8 18,1 7 4 35 19 NNE 1020,9 20 60 0,0
18.06.2017 08:00:00 17,5 11,1 15,3 21,9 18,1 5 3 26 14 NNE 1021,1 20 60 0,0
18.06.2017 07:00:00 16,1 10,6 13,9 22,0 18,1 6 3 28 15 NE 1021,3 20 26 0,0
18.06.2017 06:00:00 15,4 10,4 13,8 22,2 18,1 5 3 23 12 NE 1021,7 20 0 0,0
18.06.2017 05:00:00 15,5 10,5 13,9 22,3 18,1 8 4 22 12 NNE 1021,9 - 0 0,0
18.06.2017 04:00:00 15,7 10,7 13,7 22,4 18,1 10 5 22 12 NNE 1022,5 - 0 0,0
18.06.2017 03:00:00 16,0 10,5 14,0 22,5 18,1 8 4 20 11 NNE 1022,9 - 0 0,0
18.06.2017 02:00:00 16,6 10,4 14,6 22,6 18,1 9 5 21 11 NNE 1023,2 - 0 0,0
18.06.2017 01:00:00 17,4 10,3 15,4 22,7 18,1 6 3 20 11 NNE 1023,4 - 0 0,0
18.06.2017 00:00:00 17,9 10,3 15,9 22,8 18,1 6 3 20 11 NNE 1023,8 - 0 0,0
17.06.2017 23:00:00 18,5 10,1 16,0 22,9 18,1 5 3 18 10 NNE 1023,4 - 0 0,0
17.06.2017 22:00:00 19,6 10,6 17,0 22,9 18,1 6 3 18 10 NNE 1022,9 - 0 0,0
17.06.2017 21:00:00 22,2 11,0 21,0 22,8 18,1 6 3 22 12 NNE 1022,5 - 50 0,0
17.06.2017 20:00:00 23,9 11,9 25,5 22,7 18,1 8 5 31 17 NNE 1022,3 - 57 0,0
17.06.2017 19:00:00 24,2 11,8 28,1 22,6 18,0 14 8 31 17 N 1022,3 - 60 0,0
17.06.2017 18:00:00 24,4 11,4 29,8 22,5 18,0 15 8 30 16 N 1022,6 - 60 0,0
17.06.2017 17:00:00 24,7 11,6 31,4 22,3 18,0 11 6 32 17 N 1023,1 20 60 0,0
17.06.2017 16:00:00 24,2 11,2 32,0 22,1 18,0 9 5 35 19 NNE 1023,5 20 60 0,0
17.06.2017 15:00:00 23,2 10,3 32,0 21,9 18,0 14 8 36 19 N 1024,0 - 60 0,0
17.06.2017 14:00:00 23,0 10,8 31,0 21,8 18,0 9 5 30 16 N 1024,6 20 60 0,0
17.06.2017 13:00:00 21,4 9,6 30,9 21,7 18,0 14 8 30 16 NNE 1025,1 - 60 0,0
17.06.2017 12:00:00 20,9 9,8 29,7 21,7 18,0 10 5 36 20 NNE 1025,4 20 60 0,0
17.06.2017 11:00:00 20,3 11,0 25,8 21,8 18,0 11 6 29 16 N 1025,5 20 60 0,0
17.06.2017 10:00:00 19,2 10,7 23,8 21,9 18,0 6 3 20 11 NNE 1025,8 20 60 0,0
17.06.2017 09:00:00 17,4 10,0 14,1 22,1 18,0 9 5 22 12 N 1025,7 - 60 0,0
17.06.2017 08:00:00 15,0 9,1 9,6 22,2 18,0 10 6 18 10 N 1025,9 20 60 0,0
17.06.2017 07:00:00 11,7 8,5 7,7 22,4 17,9 0 0 12 6 N 1026,0 20 26 0,0
17.06.2017 06:00:00 10,9 8,1 6,9 22,6 18,0 0 0 5 3 N 1026,0 20 0 0,0
17.06.2017 05:00:00 11,1 8,1 7,1 22,7 17,9 0 0 4 2 N 1026,1 - 0 0,0
17.06.2017 04:00:00 11,8 8,3 7,5 22,9 17,9 0 0 4 2 N 1026,4 - 0 0,0
17.06.2017 03:00:00 12,8 8,5 8,1 23,0 17,9 2 1 4 2 NNE 1026,5 - 0 0,0
17.06.2017 02:00:00 13,5 8,3 8,4 23,2 17,9 0 0 4 2 N 1026,3 - 0 0,0
17.06.2017 01:00:00 13,9 8,3 9,0 23,3 17,9 0 0 8 4 N 1026,2 - 0 0,0
17.06.2017 00:00:00 14,8 8,7 10,7 23,5 17,9 3 2 11 6 NNE 1026,0 - 0 0,0
16.06.2017 23:00:00 16,9 8,8 13,6 23,6 17,9 5 3 18 10 N 1025,5 - 0 0,0
16.06.2017 22:00:00 18,6 9,1 16,1 23,6 17,9 9 5 24 13 N 1024,8 - 0 0,0

tt = Temperatura
td = dewpoint
tt 5cm = Temperatura 5cm
tt -20cm = Temperatura -20cm
tt -100cm = Temperatura -100cm
ff = velocità del vento
fx = gusts
dd = direzione del vento
ppp = reduced air pressure
vv = visibility
sd = ore di luce
rr = precipitazioni

Stazioni seguenti

WeatherPro
AMSI
MeteoEarth